Location: Nairn
(57.5833°N, 3.8667°W)
Time: 03:20:44
(UTC+00:00)

Altair - Pass Details

Date: 02 December 2020
Orbit: 1501 x 1682 km, 47.2° (Epoch: 17 January)

Event Time Altitude Azimuth Distance (km) Brightness Sun altitude
Rises 18:58:42 0° 199° (SSW) 4,740 10.3 -25.6°
Reaches altitude 10° 19:02:41 10° 185° (S) 3,730 9.6 -26.2°
Enters shadow 19:08:23 22° 148° (SSE) 2,886 8.6 -26.9°
